Location: Allie Creek
(37.5926°N, 89.8526°W)
Time: 19:39:07
(UTC+00:00)

Okean O Rocket - Pass Details

Date: 26 September 2023
Orbit: 619 x 641 km, 98.1° (Epoch: 08 December)

Event Time Altitude Azimuth Distance (km) Brightness Sun altitude
Exits shadow 02:38:32 23° 259° (WSW) 1,370 3.7 -32.7°
Maximum altitude 02:38:50 23° 265° (W) 1,364 3.7 -32.8°
Drops below altitude 10° 02:42:20 10° 317° (NW) 2,032 4.9 -33.4°
Sets 02:44:57 0° 332° (NNW) 2,949 5.8 -33.9°
